Regional Weather Roundup
Issued by NWS

Home | Current Version | Previous Version | Text Only | Print | Product List | Glossary On
Versions: 1 2 3 4 5 6 7 8 9 10 11 12 13 14 15 16 17 18 19 20 21 22 23 24 25 26 27 28 29 30 31 32 33 34 35 36 37 38 39 40 41 42 43 44 45 46 47 48 49 50
000
ASUS44 KFWD 222015
RWRTX
NORTH TEXAS HOURLY WEATHER ROUNDUP
NATIONAL WEATHER SERVICE FORT WORTH TX
300 PM CDT SAT JUL 22 2017

NOTE: "FAIR" INDICATES FEW OR NO CLOUDS BELOW 12,000 FEET WITH NO
SIGNIFICANT WEATHER AND/OR OBSTRUCTIONS TO VISIBILITY.

TXZ118-119-222100-
DALLAS/FORT WORTH METROPLEX

CITY           SKY/WX    TMP DP  RH WIND       PRES   REMARKS
DFW AIRPORT    MOSUNNY   99  69  37 VRB5      29.88F HX 105
DALLAS LOVE    MOSUNNY   98  69  38 SW8       29.88F HX 104
FTW MEACHAM    SUNNY    100  71  39 SW6       29.88F HX 108
DAL-EXECUTIVE  SUNNY     98  70  40 SE8G17    29.89F HX 105
FTW-ALLIANCE   MOSUNNY   99  69  37 W8        29.88F HX 105
FTW-NAS-JRB    MOSUNNY   98  69  38 S10       29.89F HX 104
FTW-SPINKS     MOSUNNY  100  64  30 SW5       29.91F HX 103
ARLINGTON      SUNNY     99  70  38 S9        29.90F HX 106
GRAND PRAIRIE  SUNNY     97  66  36 SE6       29.91F HX 100
ADDISON        SUNNY     99  66  34 SW5G16    29.90F HX 102
MESQUITE       MOSUNNY   97  70  41 SE8       29.91F HX 103
LANCASTER      PTSUNNY   94  70  44 SW5       29.91F HX 100
$$

TXZ091>094-102>105-117-120-121-131>134-222100-
NORTH CENTRAL TEXAS

CITY           SKY/WX    TMP DP  RH WIND       PRES   REMARKS
SHRMAN/DENISON MOSUNNY   95  68  41 SE9       29.90F HX 100
GAINESVILLE    MOSUNNY   97  71  42 SE8G16    29.90F HX 104
BOWIE          MOSUNNY  100  65  31 S10       29.89F HX 103
BRIDGEPORT     CLOUDY    82  67  59 S14G25    29.91F
DECATUR        SUNNY     99  67  36 S5          N/A  HX 103
DENTON         MOSUNNY   99  72  41 S7G21     29.88F HX 108
MCKINNEY       SUNNY     97  72  44 SW13      29.89F HX 105
BONHAM         MOSUNNY   95  70  43 S12       29.91F HX 101
GREENVILLE     SUNNY     99  70  39 SE9       29.91F HX 105
ROCKWALL       SUNNY     96  73  48 S12       29.91F HX 105
TERRELL        MOSUNNY   95  71  45 S7        29.91F HX 102
WAXAHACHIE     SUNNY     97  71  41 S8        29.92F HX 104
CLEBURNE       SUNNY     99  70  39 S9G15     29.92F HX 105
GRANBURY       MOSUNNY   99  65  33 SE7       29.90F HX 102
$$

TXZ083>090-098>101-113>116-127>130-139>142-154-155-222100-
WESTERN NORTH TEXAS

CITY           SKY/WX    TMP DP  RH WIND       PRES   REMARKS
WICHITA FALLS  MOSUNNY  102  64  28 MISG      29.86F HX 105
WF-KICKAPOO    MOSUNNY  103  63  26 S5        29.89F HX 105
VERNON         SUNNY    102  50  17 SE8       29.89F HX  99
ABILENE        MOSUNNY   98  62  30 SE14      29.93F HX  99
ABILENE-DYESS  SUNNY    101  63  29 S13       29.92F HX 103
GRAHAM         MOSUNNY  103  61  25 SW5       29.87F HX 104
BRECKENRIDGE   SUNNY    101  59  24 E3        29.90F HX 101
CISCO          MOSUNNY   99  63  30 S10G17    29.95F HX 100
EASTLAND       SUNNY     98  65  34 SE6       29.93F HX 101
RANGER         MOSUNNY   96  65  34 S9        29.93F HX  99
MINERAL WELLS  MOSUNNY   99  68  36 SE8       29.88F HX 104
STEPHENVILLE   SUNNY     97  64  33 S7        29.96F HX  99
COMANCHE       MOSUNNY   99  66  33 E3        29.94F HX 102
BROWNWOOD      LGT RAIN  99  63  30 S6        29.93F HX 100
COLEMAN        SUNNY    101  59  25 S5        29.95F HX 101
$$

TXZ143>147-156>162-174-175-222100-
CENTRAL TEXAS

CITY           SKY/WX    TMP DP  RH WIND       PRES   REMARKS
WACO           SUNNY    100  68  35 S8        29.90F HX 105
WACO-TSTC      MOSUNNY   99  66  34 S8        29.91F HX 102
WACO-MCGREGOR  SUNNY    100  68  35 SE12      29.91F HX 105
HILLSBORO      MOSUNNY   98  69  39 S10       29.92F HX 104
CORSICANA      SUNNY     97  71  42 SE9       29.92F HX 104
MEXIA          MOSUNNY   97  70  41 S8        29.92S HX 103
HEARNE         SUNNY     97  70  41 S3        29.92F HX 103
CAMERON        SUNNY     98  68  37 S9        29.91F HX 103
TEMPLE         PTSUNNY  100  68  35 SE13      29.92F HX 105
KILLEEN        MOSUNNY   97  63  32 SE6       29.91F HX  98
FORT HOOD      SUNNY     98  64  32 SE8       29.89F HX 101
HAMILTON       SUNNY     97  63  32 S10       29.94F HX  99
LAMPASAS       MOSUNNY   98  66  34 SE7       29.92F HX 101
$$

TXZ095>097-106>112-122>126-135>138-148>153-164>167-222100-
EAST TEXAS

CITY           SKY/WX    TMP DP  RH WIND       PRES   REMARKS
PARIS            N/A     95  74  50 SE8         N/A  HX 105
SULPHUR SPRNGS SUNNY     95  69  41 CALM      29.94F HX 100
MOUNT PLEASANT SUNNY     96  68  39 CALM      29.93F HX 100
GILMER         SUNNY     94  71  47 SE6       29.93F HX 100
MINEOLA        SUNNY     95  72  46 S7        29.92F HX 103
TYLER          PTSUNNY   96  70  42 VRB6      29.93F HX 102
LONGVIEW       MOSUNNY   95  72  47 S7        29.92F HX 103
MARSHALL         N/A     92  69  46 S3        29.95F HX  98
ATHENS         PTSUNNY   95  70  43 S7        29.91F HX 101
PALESTINE      MOSUNNY   95  74  51 S6        29.94F HX 105
JACKSONVILLE   SUNNY     91  71  51 S5        29.97F HX  98
HENDERSON      CLOUDY    91  72  52 SE6       29.94F HX  98
CENTER         HAZE      95  74  51 S5        29.95F VSB 3/4 HX 105
NACOGDOCHES    MOSUNNY   91  72  52 SE5       29.92F HX  98
LUFKIN         MOSUNNY   92  72  51 VRB3      29.94F HX  99
$$

SUPPLEMENTAL OBSERVATIONS (NWS FORT WORTH AREA)

CITY           SKY/WX    TMP DP  RH WIND       PRES   REMARKS
DENISON DAM      N/A     97  68  38 S6          N/A  HX 101
CADDO GRASSLND   N/A     97  70  41 S7          N/A  HX 103
PAT MAYSE LAKE   N/A     93  73  52 SE7         N/A  HX 102
GREENVILLE       N/A     99  70  39 S6          N/A  HX 105
CEDAR HILL       N/A     99  68  36 S7G15       N/A  HX 104
LBJ GRASSLAND    N/A    102  68  32 S8          N/A  HX 108
POSSUM KINGDOM   N/A     93  64  38 SE13        N/A  HX  95
GRANBURY         N/A    100  66  32 S10         N/A  HX 104
COMANCHE         N/A     97  64  34 SE6         N/A  HX  99
MCGREGOR         N/A     99  64  32 SE9G17      N/A  HX 101
TEMPLE           N/A     99  64  32 SE8G16      N/A  HX 101
LAKE LIMESTONE   N/A     99  68  36 S6G15       N/A  HX 104
ATHENS           N/A     97  68  38 SE8         N/A  HX 101
$$

SUPPLEMENTAL OBSERVATIONS (NWS NORMAN AREA)

CITY           SKY/WX    TMP DP  RH WIND       PRES   REMARKS
GOODLETT         N/A    102  53  19 S9G15     29.89S HX  99
ODELL            N/A    101  60  25 SE7       29.89F HX 102
CROWELL          N/A    105  60  23 SW16      29.89F HX 105
KNOX CITY        N/A    102  55  21 S12       29.90F HX 101
SEYMOUR          N/A    102  56  21 S10G17    29.88F HX 100
MILLERS CREEK    N/A    100  63  28 S10         N/A  HX 102
$$

SUPPLEMENTAL OBSERVATIONS (NWS SAN ANGELO AREA)

CITY           SKY/WX    TMP DP  RH WIND       PRES   REMARKS
WEINERT          N/A    101  62  27 S15       29.90F HX 103
HASKELL          N/A     99  56  23 SE8       29.91F HX  97
THROCKMORTON     N/A    102  66  30 S5        29.92F HX 107
STAMFORD         N/A    100  63  29 SE15      29.92F HX 102
CLYDE            N/A     96  62  32 S5        29.96F HX  97
HAMBY            N/A     99  59  26 S9          N/A  HX  98
IVIE RESERVOIR   N/A    102  59  24 SE10        N/A  HX 102
COLORADO BEND    N/A     99  59  26 NE7G16      N/A  HX  98
$$

SUPPLEMENTAL OBSERVATIONS (NWS SHREVEPORT AREA)

CITY           SKY/WX    TMP DP  RH WIND       PRES   REMARKS
CLARKSVILLE      N/A     97  72  44 S3          N/A  HX 105
TEXARKANA        N/A     95  73  49 S2          N/A  HX 105
LINDEN           N/A     95  70  43 S3          N/A  HX 101
CADDO LAKE       N/A     99  72  41 SW5         N/A  HX 107
GILMER           N/A     95  70  43 S5          N/A  HX 101
HENDERSON        N/A     91  72  52 SE7         N/A  HX  98
LUFKIN           N/A     91  73  55 MISG        N/A  HX 100
N SABINE NF      N/A     97  73  46 MISG        N/A  HX 107
S SABINE NF      N/A     91  73  55 N3          N/A  HX 100
$$

SUPPLEMENTAL OBSERVATIONS ARE A COLLECTION OF AUTOMATED INSTRUMENTS
THAT ARE MAINTAINED BY A VARIETY OF FEDERAL AND STATE AGENCIES.
CERTAIN ELEMENTS...SUCH AS HUMIDITY VALUES AND SUSTAINED WIND
SPEEDS...MAY BE APPROXIMATED.




USA.gov is the U.S. government's official web portal to all federal, state and local government web resources and services.